COSMOS 1275 DEB, 12660

Orbit data source: Space-Track

COSMOS 1275 DEB, 12660 is space debris in LEO originally from a launch on Thu, 04 Jun 1981 UTC launched from the Plesetsk Missile And Space Complex (PKMTR). Debris objects in space refer to the collection of defunct objects orbiting the Earth. Examples of debris include non-operational satellites, rocket bodies, and fragments generated from explosions, collisions, or faulty payload assembly.

Loading next visibility...
Identifier
12660, 1981-053Q
Orbit
LEO
Country
Flag of CISCIS
Related business
Manufacturer
Unknown
Mission
Spacecraft
Bus & Motor
Unknown
Mass
Unknown
Launch date (UTC)
1981-06-04 (45 years ago)
Launch vehicle
Unknown
Launch site
Plesetsk Missile And Space Complex (PKMTR)
Object type
Payload
Rocket body
Debris
Shape & HBR
Unknown shape, 0.1 m
Radar Cross Section
Small (<0.1 m²)

Expand to show TLE details & history
Last TLE update: 9 hours ago

TLE from 9 hours ago
0 COSMOS 1275 DEB
1 12660U 81053Q   26034.49734950  .00000476  00000-0  52929-3 0  9995
2 12660  82.8525 199.7571 0134309 163.2165 253.9534 13.65780071203790
Epoch: 2026-02-03T11:56Z
TLE epoch observation values (Epoch: 2026-02-03T11:56:10.996Z)
Latitude
55.14658°
Longitude
-102.6465°
Altitude
1,052.565 km
Speed
7.317 km/s
True Right ascension
14h 00m 18s
True Declination
54° 59' 30"
Sunlit
Object was in daylight at epoch
Visualization orbit readout
Latitude
Unknown
Longitude
Unknown
Altitude
Unknown
Speed
Unknown
Apparent Right ascension
Unknown
Apparent Declination
Unknown
Sunlit
N/A
Visualization observer readout
Local Sidereal Time
22:38:18
Azimuth
Unknown
Elevation
Unknown
Doppler factor
Unknown
Orbital elements
Apogee altitude
1,111.18 km
Perigee altitude
912.669 km
Semi-major axis
7,390.061 km
Eccentricity
0.01343
Inclination
82.8525°
RAAN
199.7571°
Arg. of periapsis
163.2165°
True anomaly
252.48129°
Mean anomaly
253.9534°
Eccentric anomaly
253.21665°
Mean motion
3.41642 °/min
Orbital period
105.37 mins
BSTAR
0.00052929
Loading maneuver chart data...
Computing Atmospheric mass density...

Documentation

Showing up to 5 results
|